AAL808 KDEN-KPHL

Flight info

Callsign AAL808
Flight time N/A
Altitude 37000
Route EMMYS8 ZIRKL LEFAM SPI J80 VHP APE JST BOJID4
Aircraft B738/M-SDE2E3FGHIRWXY/LB1

Departure

Time 2026-05-07 12:52
Airport Denver International Airport (KDEN)

Arrival

Time N/A
Airport Philadelphia International Airport (KPHL)
Time Latitude Longitude Altitude Speed Heading
2026-05-07 12:41 39.85933 -104.67037 5386 ft 0 kts 178°
2026-05-07 12:46 39.85947 -104.67038 5383 ft 2 kts 180°
2026-05-07 12:46 39.85964 -104.67039 5383 ft 2 kts 179°
2026-05-07 12:46 39.85980 -104.67039 5384 ft 2 kts 181°
2026-05-07 12:47 39.85997 -104.67038 5386 ft 2 kts 183°
2026-05-07 12:47 39.86008 -104.67037 5386 ft 1 kts 179°
2026-05-07 12:47 39.86009 -104.67037 5386 ft 0 kts 179°
2026-05-07 12:48 39.86008 -104.67037 5386 ft 2 kts 176°
2026-05-07 12:48 39.86001 -104.66998 5386 ft 11 kts 89°
2026-05-07 12:49 39.86056 -104.66848 5386 ft 25 kts 75°
2026-05-07 12:49 39.86058 -104.66610 5386 ft 26 kts 97°
2026-05-07 12:49 39.86016 -104.66393 5385 ft 24 kts 91°
2026-05-07 12:49 39.86058 -104.66229 5388 ft 17 kts 19°
2026-05-07 12:50 39.86180 -104.66232 5385 ft 20 kts 359°
2026-05-07 12:50 39.86343 -104.66229 5381 ft 27 kts
2026-05-07 12:50 39.86552 -104.66227 5382 ft 33 kts
2026-05-07 12:50 39.86810 -104.66224 5374 ft 41 kts 360°
2026-05-07 12:51 39.87115 -104.66219 5365 ft 44 kts
2026-05-07 12:51 39.87418 -104.66216 5362 ft 42 kts
2026-05-07 12:51 39.87686 -104.66211 5361 ft 24 kts
2026-05-07 12:51 39.87755 -104.66108 5357 ft 18 kts 91°
2026-05-07 12:52 39.87751 -104.65636 5352 ft 88 kts 90°
2026-05-07 12:52 39.87742 -104.64552 5338 ft 151 kts 90°
2026-05-07 12:52 39.87701 -104.62949 5410 ft 196 kts 96°
2026-05-07 12:52 39.87638 -104.61109 6035 ft 209 kts 95°
2026-05-07 12:53 39.87614 -104.59099 6463 ft 237 kts 90°
2026-05-07 12:53 39.87611 -104.56940 7130 ft 235 kts 89°
2026-05-07 12:53 39.87605 -104.54700 7446 ft 261 kts 89°
2026-05-07 12:53 39.87591 -104.52213 7641 ft 285 kts 89°
2026-05-07 12:54 39.87567 -104.49569 8139 ft 296 kts 89°
2026-05-07 12:54 39.87536 -104.46882 8898 ft 297 kts 88°
2026-05-07 12:54 39.87502 -104.44182 9646 ft 298 kts 87°
2026-05-07 12:54 39.87466 -104.41481 10021 ft 301 kts 86°
2026-05-07 12:55 39.87439 -104.38760 10132 ft 301 kts 86°
2026-05-07 12:55 39.87432 -104.35955 10259 ft 321 kts 86°
2026-05-07 12:55 39.87426 -104.33000 10476 ft 340 kts 86°
2026-05-07 12:55 39.87414 -104.29878 10951 ft 349 kts 86°
2026-05-07 12:56 39.87398 -104.26710 11601 ft 352 kts 86°
2026-05-07 12:56 39.87380 -104.23509 12270 ft 355 kts 87°
2026-05-07 12:56 39.87362 -104.20274 12895 ft 359 kts 87°
2026-05-07 12:56 39.87344 -104.16997 13522 ft 364 kts 87°
2026-05-07 12:57 39.87324 -104.13688 14122 ft 368 kts 87°
2026-05-07 12:57 39.87303 -104.10339 14675 ft 372 kts 87°
2026-05-07 12:57 39.87281 -104.06953 15219 ft 377 kts 87°
2026-05-07 12:57 39.87258 -104.03515 15768 ft 381 kts 87°
2026-05-07 12:58 39.87234 -104.00040 16321 ft 386 kts 86°
2026-05-07 12:58 39.87209 -103.96530 16858 ft 390 kts 86°
2026-05-07 12:58 39.87191 -103.94186 17219 ft 393 kts 86°
2026-05-07 12:58 39.87172 -103.90607 17765 ft 397 kts 85°
2026-05-07 12:59 39.87340 -103.87007 18294 ft 399 kts 80°
2026-05-07 12:59 39.87626 -103.83394 18754 ft 402 kts 79°
2026-05-07 12:59 39.87928 -103.79759 19225 ft 406 kts 80°
2026-05-07 12:59 39.88205 -103.76089 19711 ft 409 kts 80°
2026-05-07 13:00 39.88476 -103.72387 20176 ft 412 kts 79°
2026-05-07 13:00 39.88841 -103.68677 20614 ft 414 kts 77°
2026-05-07 13:00 39.89271 -103.64959 21067 ft 417 kts 77°
2026-05-07 13:00 39.89725 -103.61210 21511 ft 421 kts 76°
2026-05-07 13:01 39.90185 -103.57425 21944 ft 424 kts 77°
2026-05-07 13:01 39.90639 -103.53619 22392 ft 427 kts 77°
2026-05-07 13:01 39.91089 -103.49773 22818 ft 431 kts 77°
2026-05-07 13:01 39.91535 -103.45901 23247 ft 434 kts 77°
2026-05-07 13:02 39.91980 -103.41997 23647 ft 437 kts 77°
2026-05-07 13:02 39.92424 -103.38063 23989 ft 441 kts 78°
2026-05-07 13:02 39.92868 -103.34102 24335 ft 443 kts 78°
2026-05-07 13:02 39.93312 -103.30118 24684 ft 446 kts 78°
2026-05-07 13:03 39.93759 -103.26103 25021 ft 449 kts 78°
2026-05-07 13:03 39.94202 -103.22116 25328 ft 451 kts 78°
2026-05-07 13:03 39.94652 -103.18052 25666 ft 454 kts 78°
2026-05-07 13:03 39.95103 -103.13962 25985 ft 457 kts 78°
2026-05-07 13:04 39.95556 -103.09848 26305 ft 459 kts 78°
2026-05-07 13:04 39.96009 -103.05715 26610 ft 462 kts 78°
2026-05-07 13:04 39.96464 -103.01554 26910 ft 465 kts 78°
2026-05-07 13:04 39.96919 -102.97372 27206 ft 467 kts 78°
2026-05-07 13:05 39.97370 -102.93217 27495 ft 470 kts 78°
2026-05-07 13:05 39.97828 -102.88988 27787 ft 472 kts 78°
2026-05-07 13:05 39.98286 -102.84740 28071 ft 474 kts 78°
2026-05-07 13:05 39.98745 -102.80459 28354 ft 477 kts 78°
2026-05-07 13:06 39.99205 -102.76162 28637 ft 479 kts 78°
2026-05-07 13:06 39.99665 -102.71852 28902 ft 481 kts 78°
2026-05-07 13:06 40.00125 -102.67520 29164 ft 484 kts 78°
2026-05-07 13:06 40.00586 -102.63165 29436 ft 486 kts 78°
2026-05-07 13:07 40.01049 -102.58781 29692 ft 488 kts 78°
2026-05-07 13:07 40.01510 -102.54390 29943 ft 490 kts 78°
2026-05-07 13:07 40.01973 -102.49972 30169 ft 492 kts 78°
2026-05-07 13:07 40.02434 -102.45549 30377 ft 494 kts 78°
2026-05-07 13:08 40.02896 -102.41103 30602 ft 495 kts 78°
2026-05-07 13:08 40.03357 -102.36647 30810 ft 496 kts 78°
2026-05-07 13:08 40.03817 -102.32179 31059 ft 497 kts 78°
2026-05-07 13:08 40.04275 -102.27719 31367 ft 495 kts 78°
2026-05-07 13:09 40.04730 -102.23266 31685 ft 494 kts 78°
2026-05-07 13:09 40.05176 -102.18880 31954 ft 494 kts 78°
2026-05-07 13:09 40.05629 -102.14427 32198 ft 494 kts 78°
2026-05-07 13:09 40.06078 -102.09982 32460 ft 494 kts 78°
2026-05-07 13:10 40.06526 -102.05542 32735 ft 493 kts 78°
2026-05-07 13:10 40.06971 -102.01105 33000 ft 493 kts 78°
2026-05-07 13:10 40.07415 -101.96666 33232 ft 493 kts 78°
2026-05-07 13:10 40.07856 -101.92231 33474 ft 492 kts 78°
2026-05-07 13:11 40.08296 -101.87799 33719 ft 492 kts 78°
2026-05-07 13:11 40.08734 -101.83365 33953 ft 492 kts 78°
2026-05-07 13:11 40.09170 -101.78933 34143 ft 492 kts 78°
2026-05-07 13:11 40.09605 -101.74497 34298 ft 493 kts 79°
2026-05-07 13:12 40.10039 -101.70053 34445 ft 494 kts 79°
2026-05-07 13:12 40.10472 -101.65600 34607 ft 494 kts 79°
2026-05-07 13:12 40.10903 -101.61146 34786 ft 494 kts 79°
2026-05-07 13:12 40.11333 -101.56683 34943 ft 495 kts 79°
2026-05-07 13:13 40.11761 -101.52222 35083 ft 496 kts 79°
2026-05-07 13:13 40.12189 -101.47749 35238 ft 496 kts 79°
2026-05-07 13:13 40.12611 -101.43330 35378 ft 497 kts 79°
2026-05-07 13:13 40.13036 -101.38852 35534 ft 497 kts 79°
2026-05-07 13:14 40.13400 -101.34359 35669 ft 499 kts 83°
2026-05-07 13:14 40.13599 -101.29819 35801 ft 500 kts 85°
2026-05-07 13:14 40.13706 -101.25270 35929 ft 501 kts 86°
2026-05-07 13:14 40.13778 -101.20708 36057 ft 502 kts 86°
2026-05-07 13:15 40.13932 -101.11557 36262 ft 504 kts 86°
2026-05-07 13:15 40.14029 -101.06971 36400 ft 504 kts 86°
2026-05-07 13:15 40.14137 -101.02389 36535 ft 505 kts 86°
2026-05-07 13:16 40.14252 -100.97794 36654 ft 505 kts 86°
2026-05-07 13:16 40.14367 -100.93264 36767 ft 505 kts 86°
2026-05-07 13:16 40.14599 -100.84063 36970 ft 507 kts 86°
2026-05-07 13:17 40.14822 -100.74808 36990 ft 510 kts 86°
2026-05-07 13:17 40.15037 -100.65509 36998 ft 514 kts 86°
2026-05-07 13:18 40.15245 -100.56128 36986 ft 518 kts 87°
2026-05-07 13:18 40.15446 -100.46692 36988 ft 520 kts 87°
2026-05-07 13:19 40.15637 -100.37297 36980 ft 513 kts 87°
2026-05-07 13:19 40.15818 -100.28082 36968 ft 508 kts 87°
2026-05-07 13:20 40.15993 -100.18866 36972 ft 505 kts 87°
2026-05-07 13:20 40.16161 -100.09669 36988 ft 507 kts 87°
2026-05-07 13:21 40.16323 -100.00412 36988 ft 511 kts 87°
2026-05-07 13:21 40.16477 -99.91130 36997 ft 515 kts 88°
2026-05-07 13:22 40.16625 -99.81713 37003 ft 519 kts 88°
2026-05-07 13:22 40.16766 -99.72253 37012 ft 522 kts 88°
2026-05-07 13:23 40.16900 -99.62770 37002 ft 521 kts 88°
2026-05-07 13:23 40.17024 -99.53372 36992 ft 513 kts 88°
2026-05-07 13:24 40.17141 -99.44065 37003 ft 510 kts 88°
2026-05-07 13:24 40.17249 -99.34803 36997 ft 508 kts 88°
2026-05-07 13:25 40.17350 -99.25625 37001 ft 508 kts 88°
2026-05-07 13:25 40.17444 -99.16372 37011 ft 509 kts 88°
2026-05-07 13:26 40.17531 -99.07095 37014 ft 511 kts 88°
2026-05-07 13:26 40.17610 -98.97780 37020 ft 513 kts 88°
2026-05-07 13:27 40.17683 -98.88423 37015 ft 515 kts 89°
2026-05-07 13:27 40.17748 -98.79036 37012 ft 517 kts 89°
2026-05-07 13:28 40.17805 -98.69597 37011 ft 519 kts 89°
2026-05-07 13:28 40.17855 -98.60198 37012 ft 521 kts 89°
2026-05-07 13:29 40.17898 -98.50706 37008 ft 522 kts 89°
2026-05-07 13:29 40.17933 -98.41222 37008 ft 522 kts 89°
2026-05-07 13:30 40.17960 -98.31733 37005 ft 521 kts 89°
2026-05-07 13:30 40.17979 -98.22262 37005 ft 520 kts 89°
2026-05-07 13:31 40.17991 -98.12813 37003 ft 519 kts 89°
2026-05-07 13:31 40.17994 -98.03388 37005 ft 517 kts 89°
2026-05-07 13:32 40.17991 -97.94043 37008 ft 516 kts 89°
2026-05-07 13:32 40.17979 -97.84665 37013 ft 515 kts 89°
2026-05-07 13:33 40.17961 -97.75296 37015 ft 515 kts 89°
2026-05-07 13:33 40.17935 -97.65939 37020 ft 515 kts 90°
2026-05-07 13:34 40.17881 -97.51884 37025 ft 516 kts 90°
2026-05-07 13:35 40.17836 -97.42492 37026 ft 517 kts 90°
2026-05-07 13:35 40.17783 -97.33075 37022 ft 518 kts 90°
2026-05-07 13:36 40.17722 -97.23638 37018 ft 520 kts 90°
2026-05-07 13:36 40.17654 -97.14230 37015 ft 521 kts 90°
2026-05-07 13:37 40.17577 -97.04741 37027 ft 522 kts 90°
2026-05-07 13:37 40.17493 -96.95237 37019 ft 523 kts 90°
2026-05-07 13:38 40.17400 -96.85713 37031 ft 524 kts 90°
2026-05-07 13:38 40.17300 -96.76184 37030 ft 524 kts 90°
2026-05-07 13:39 40.17192 -96.66643 37029 ft 525 kts 90°
2026-05-07 13:39 40.17076 -96.57106 37032 ft 525 kts 90°
2026-05-07 13:40 40.16953 -96.47622 37027 ft 525 kts 90°
2026-05-07 13:40 40.16822 -96.38077 37028 ft 525 kts 90°
2026-05-07 13:41 40.16682 -96.28538 37017 ft 524 kts 90°
2026-05-07 13:41 40.16492 -96.19014 37025 ft 524 kts 91°
2026-05-07 13:42 40.16271 -96.09545 37024 ft 524 kts 91°
2026-05-07 13:42 40.16044 -96.00022 37024 ft 524 kts 91°
2026-05-07 13:43 40.15816 -95.90509 37029 ft 524 kts 91°
2026-05-07 13:43 40.15583 -95.80992 37029 ft 524 kts 91°
2026-05-07 13:44 40.15342 -95.71454 37036 ft 525 kts 91°
2026-05-07 13:44 40.15092 -95.61919 37039 ft 525 kts 91°
2026-05-07 13:45 40.14834 -95.52361 37041 ft 526 kts 91°
2026-05-07 13:45 40.14568 -95.42839 37032 ft 527 kts 91°
2026-05-07 13:46 40.14293 -95.33240 37027 ft 528 kts 91°
2026-05-07 13:46 40.14010 -95.23641 37024 ft 529 kts 91°
2026-05-07 13:47 40.13718 -95.14015 37026 ft 530 kts 91°
2026-05-07 13:47 40.13469 -95.06013 37026 ft 530 kts 91°
2026-05-07 13:48 40.13112 -94.94814 37031 ft 531 kts 91°
2026-05-07 13:48 40.12795 -94.85170 37027 ft 532 kts 91°
2026-05-07 13:49 40.12523 -94.77077 37036 ft 532 kts 91°
2026-05-07 13:49 40.12193 -94.67456 37031 ft 533 kts 91°
2026-05-07 13:50 40.11852 -94.57773 37030 ft 533 kts 91°
2026-05-07 13:50 40.11503 -94.48089 37036 ft 533 kts 91°
2026-05-07 13:51 40.11146 -94.38414 37037 ft 533 kts 92°
2026-05-07 13:51 40.10781 -94.28719 37038 ft 533 kts 92°
2026-05-07 13:52 40.10410 -94.19095 37034 ft 534 kts 92°
2026-05-07 13:52 40.10029 -94.09409 37049 ft 534 kts 92°
2026-05-07 13:53 40.09640 -93.99732 37045 ft 534 kts 92°
2026-05-07 13:53 40.09242 -93.90037 37051 ft 534 kts 92°
2026-05-07 13:54 40.08836 -93.80335 37043 ft 535 kts 92°
2026-05-07 13:54 40.08421 -93.70632 37050 ft 535 kts 92°
2026-05-07 13:55 40.07998 -93.60920 37044 ft 535 kts 92°
2026-05-07 13:55 40.07570 -93.51284 37047 ft 535 kts 92°
2026-05-07 13:56 40.07129 -93.41517 37047 ft 536 kts 92°
2026-05-07 13:56 40.06683 -93.31849 37058 ft 536 kts 92°
2026-05-07 13:57 40.06227 -93.22129 37056 ft 536 kts 92°
2026-05-07 13:57 40.05763 -93.12416 37054 ft 536 kts 92°
2026-05-07 13:58 40.05290 -93.02688 37055 ft 537 kts 93°
2026-05-07 13:58 40.04810 -92.92967 37060 ft 536 kts 93°
2026-05-07 13:59 40.04321 -92.83254 37064 ft 536 kts 93°
2026-05-07 13:59 40.03825 -92.73544 37068 ft 536 kts 93°
2026-05-07 14:00 40.03324 -92.63899 37067 ft 536 kts 93°
2026-05-07 14:00 40.02811 -92.54194 37069 ft 536 kts 93°
2026-05-07 14:01 40.02291 -92.44500 37082 ft 535 kts 94°
2026-05-07 14:01 40.01768 -92.34903 37073 ft 535 kts 94°
2026-05-07 14:02 40.01232 -92.25217 37069 ft 536 kts 94°
2026-05-07 14:02 40.00688 -92.15523 37058 ft 536 kts 94°
2026-05-07 14:03 40.00136 -92.05830 37062 ft 536 kts 94°
2026-05-07 14:03 39.99575 -91.96134 37061 ft 536 kts 94°
2026-05-07 14:04 39.99006 -91.86445 37063 ft 536 kts 94°
2026-05-07 14:04 39.98429 -91.76747 37068 ft 536 kts 95°
2026-05-07 14:05 39.97847 -91.67108 37074 ft 536 kts 95°
2026-05-07 14:05 39.97253 -91.57404 37078 ft 536 kts 95°
2026-05-07 14:06 39.96651 -91.47705 37069 ft 536 kts 95°
2026-05-07 14:06 39.96041 -91.38011 37076 ft 536 kts 95°
2026-05-07 14:07 39.95422 -91.28307 37076 ft 537 kts 96°
2026-05-07 14:07 39.94797 -91.18621 37074 ft 537 kts 96°
2026-05-07 14:08 39.94162 -91.08924 37071 ft 536 kts 96°
2026-05-07 14:08 39.93520 -90.99229 37072 ft 536 kts 96°
2026-05-07 14:09 39.92869 -90.89543 37071 ft 537 kts 96°
2026-05-07 14:09 39.92211 -90.79860 37091 ft 537 kts 96°
2026-05-07 14:10 39.91548 -90.70232 37091 ft 537 kts 96°
2026-05-07 14:10 39.90872 -90.60529 37091 ft 537 kts 96°
2026-05-07 14:11 39.90188 -90.50827 37087 ft 538 kts 97°
2026-05-07 14:11 39.89495 -90.41108 37101 ft 539 kts 97°
2026-05-07 14:12 39.88794 -90.31395 37096 ft 540 kts 97°
2026-05-07 14:12 39.88081 -90.21643 37103 ft 541 kts 97°
2026-05-07 14:13 39.87361 -90.11899 37096 ft 541 kts 97°
2026-05-07 14:13 39.86631 -90.02125 37096 ft 542 kts 97°
2026-05-07 14:14 39.85896 -89.92406 37095 ft 543 kts 97°
2026-05-07 14:14 39.85148 -89.82619 37102 ft 544 kts 97°
2026-05-07 14:15 39.84391 -89.72816 37102 ft 545 kts 97°
2026-05-07 14:15 39.83870 -89.62971 37104 ft 546 kts 91°
2026-05-07 14:16 39.83954 -89.53082 37098 ft 546 kts 89°
2026-05-07 14:16 39.84111 -89.43203 37097 ft 547 kts 89°
2026-05-07 14:17 39.84192 -89.33346 37091 ft 547 kts 90°
2026-05-07 14:17 39.84222 -89.23440 37089 ft 547 kts 90°
2026-05-07 14:18 39.84239 -89.13540 37095 ft 547 kts 90°
2026-05-07 14:18 39.84252 -89.03646 37098 ft 547 kts 90°
2026-05-07 14:19 39.84261 -88.93749 37104 ft 546 kts 90°
2026-05-07 14:19 39.84261 -88.83920 37098 ft 546 kts 90°
2026-05-07 14:20 39.84252 -88.74044 37103 ft 546 kts 91°
2026-05-07 14:20 39.84235 -88.64172 37095 ft 545 kts 91°
2026-05-07 14:21 39.84210 -88.54289 37095 ft 545 kts 91°
2026-05-07 14:21 39.84179 -88.44480 37095 ft 545 kts 91°
2026-05-07 14:22 39.84141 -88.34619 37097 ft 545 kts 91°
2026-05-07 14:22 39.84097 -88.24743 37096 ft 545 kts 91°
2026-05-07 14:23 39.84037 -88.14865 37096 ft 545 kts 91°
2026-05-07 14:23 39.83978 -88.06651 37095 ft 546 kts 91°
2026-05-07 14:24 39.83911 -87.98050 37099 ft 547 kts 92°
2026-05-07 14:24 39.83827 -87.88197 37107 ft 549 kts 92°
2026-05-07 14:25 39.83734 -87.78250 37109 ft 550 kts 92°
2026-05-07 14:25 39.83633 -87.68274 37108 ft 552 kts 92°
2026-05-07 14:26 39.83524 -87.58290 37110 ft 552 kts 92°
2026-05-07 14:26 39.83406 -87.48363 37106 ft 552 kts 92°
2026-05-07 14:27 39.83279 -87.38363 37101 ft 552 kts 92°
2026-05-07 14:27 39.83143 -87.28373 37092 ft 552 kts 92°
2026-05-07 14:28 39.82999 -87.18401 37095 ft 551 kts 93°
2026-05-07 14:28 39.82848 -87.08505 37097 ft 550 kts 93°
2026-05-07 14:29 39.82687 -86.98565 37099 ft 550 kts 93°
2026-05-07 14:29 39.82518 -86.88627 37094 ft 549 kts 93°
2026-05-07 14:30 39.82341 -86.78703 37096 ft 549 kts 93°
2026-05-07 14:30 39.82155 -86.68773 37097 ft 549 kts 94°
2026-05-07 14:31 39.81961 -86.58854 37099 ft 549 kts 94°
2026-05-07 14:31 39.81759 -86.48918 37085 ft 549 kts 94°
2026-05-07 14:32 39.81551 -86.38972 37088 ft 550 kts 93°
2026-05-07 14:32 39.82124 -86.29092 37106 ft 552 kts 83°
2026-05-07 14:33 39.83236 -86.19182 37088 ft 554 kts 82°
2026-05-07 14:33 39.84358 -86.09260 37097 ft 555 kts 82°
2026-05-07 14:34 39.85414 -85.99285 37088 ft 557 kts 83°
2026-05-07 14:34 39.86431 -85.89251 37084 ft 559 kts 83°
2026-05-07 14:35 39.87437 -85.79208 37086 ft 560 kts 83°
2026-05-07 14:35 39.88435 -85.69197 37085 ft 562 kts 83°
2026-05-07 14:36 39.89438 -85.59088 37074 ft 562 kts 83°
2026-05-07 14:36 39.90264 -85.50693 37071 ft 563 kts 83°
2026-05-07 14:37 39.91251 -85.40583 37076 ft 562 kts 83°
2026-05-07 14:37 39.92710 -85.25443 37069 ft 561 kts 83°
2026-05-07 14:38 39.93671 -85.15357 37070 ft 560 kts 84°
2026-05-07 14:38 39.94621 -85.05296 37070 ft 559 kts 84°
2026-05-07 14:39 39.95561 -84.95240 37072 ft 558 kts 84°
2026-05-07 14:39 39.96491 -84.85201 37070 ft 558 kts 84°
2026-05-07 14:40 39.97413 -84.75149 37067 ft 558 kts 84°
2026-05-07 14:40 39.98327 -84.65086 37060 ft 558 kts 84°
2026-05-07 14:41 39.99227 -84.55077 37058 ft 559 kts 84°
2026-05-07 14:41 40.00126 -84.44989 37063 ft 560 kts 84°
2026-05-07 14:42 40.01017 -84.34886 37065 ft 561 kts 84°
2026-05-07 14:42 40.01901 -84.24756 37066 ft 563 kts 84°
2026-05-07 14:43 40.02779 -84.14586 37068 ft 564 kts 84°
2026-05-07 14:43 40.03649 -84.04407 37061 ft 565 kts 84°
2026-05-07 14:44 40.04507 -83.94265 37045 ft 566 kts 85°
2026-05-07 14:44 40.05363 -83.84045 37046 ft 566 kts 85°
2026-05-07 14:45 40.06209 -83.73829 37051 ft 566 kts 85°
2026-05-07 14:45 40.07048 -83.63583 37041 ft 567 kts 85°
2026-05-07 14:46 40.07876 -83.53357 37040 ft 566 kts 85°
2026-05-07 14:46 40.08691 -83.43188 37023 ft 566 kts 85°
2026-05-07 14:47 40.09505 -83.32908 37028 ft 566 kts 85°
2026-05-07 14:47 40.10305 -83.22687 37038 ft 565 kts 85°
2026-05-07 14:48 40.11091 -83.12535 37035 ft 566 kts 85°
2026-05-07 14:48 40.11875 -83.02294 37039 ft 566 kts 86°
2026-05-07 14:49 40.12649 -82.92050 37036 ft 566 kts 86°
2026-05-07 14:49 40.13415 -82.81801 37028 ft 567 kts 86°
2026-05-07 14:50 40.14173 -82.71536 37026 ft 568 kts 86°
2026-05-07 14:50 40.14924 -82.61252 37025 ft 568 kts 86°
2026-05-07 14:51 40.15614 -82.51030 37017 ft 569 kts 87°
2026-05-07 14:51 40.16211 -82.40703 37019 ft 569 kts 88°